Location: B?jaj?g
(11.7167°N, 92.6667°E)
Time: 01:40:16
(UTC+00:00)

Delta 7925 Rocket - Pass Details

Date: 18 September 2020
Orbit: 645 x 1648 km, 26.3° (Epoch: 30 October)

Event Time Altitude Azimuth Distance (km) Brightness Sun altitude
Rises 12:23:55 0° 295° (WNW) 2,954 8.0 -9.6°
Reaches altitude 10° 12:26:08 10° 295° (WNW) 2,082 7.0 -10.2°
Maximum altitude 12:30:56 89° 25° (NNE) 735 3.4 -11.3°
Enters shadow 12:35:44 15° 115° (ESE) 2,125 5.2 -12.5°
